TimeCDT,TemperatureF,Dew PointF,Humidity,Sea Level PressureIn,VisibilityMPH,Wind Direction,Wind SpeedMPH,Gust SpeedMPH,PrecipitationIn,Events,Conditions,WindDirDegrees,DateUTC
12:15 AM,77.2,55.4,47,29.68,10.0,SSE,23.0,32.2,N/A,,Clear,160,2013-09-28 05:15:00
12:35 AM,77.2,55.8,47,29.69,10.0,South,20.7,28.8,N/A,,Clear,170,2013-09-28 05:35:00
12:55 AM,77.0,55.9,48,29.68,10.0,South,21.9,31.1,N/A,,Clear,170,2013-09-28 05:55:00
1:15 AM,77.0,56.3,49,29.68,10.0,South,18.4,31.1,N/A,,Scattered Clouds,170,2013-09-28 06:15:00
1:35 AM,74.1,59.2,59,29.69,10.0,South,18.4,26.5,N/A,Rain,Light Rain,170,2013-09-28 06:35:00
1:55 AM,72.1,61.3,69,29.69,10.0,SSW,17.3,26.5,N/A,Rain,Light Rain,200,2013-09-28 06:55:00
2:15 AM,71.1,61.7,72,29.73,10.0,SW,10.4,19.6,N/A,Rain,Light Rain,230,2013-09-28 07:15:00
2:35 AM,71.1,61.9,73,29.70,10.0,South,4.6,-,N/A,Rain,Light Rain,180,2013-09-28 07:35:00
2:55 AM,70.0,62.4,77,29.69,7.0,SW,8.1,-,0.02,Rain-Thunderstorm,Heavy Thunderstorms and Rain,230,2013-09-28 07:55:00
3:15 AM,63.0,58.8,86,29.73,4.0,NW,15.0,24.2,0.14,Rain-Thunderstorm,Rain,310,2013-09-28 08:15:00
3:35 AM,59.4,55.6,87,29.77,7.0,WNW,12.7,17.3,0.16,Rain-Thunderstorm,Heavy Thunderstorms and Rain,300,2013-09-28 08:35:00
3:55 AM,56.3,53.2,89,29.77,7.0,NW,9.2,23.0,0.20,Rain,Rain,320,2013-09-28 08:55:00
4:15 AM,55.4,52.2,89,29.76,10.0,NNW,9.2,-,0.03,Rain,Rain,330,2013-09-28 09:15:00
4:35 AM,55.4,52.3,89,29.81,10.0,WNW,9.2,-,0.05,Rain,Light Rain,300,2013-09-28 09:35:00
4:55 AM,55.0,51.8,89,29.83,10.0,WNW,11.5,17.3,0.05,,Overcast,300,2013-09-28 09:55:00
5:15 AM,54.9,51.1,87,29.84,10.0,NW,12.7,20.7,N/A,,Overcast,320,2013-09-28 10:15:00
5:35 AM,54.7,50.9,87,29.87,10.0,NW,8.1,20.7,N/A,,Overcast,320,2013-09-28 10:35:00
5:55 AM,54.7,50.7,86,29.86,10.0,NW,16.1,20.7,N/A,,Overcast,320,2013-09-28 10:55:00
6:15 AM,54.5,49.8,84,29.88,10.0,NNW,10.4,18.4,N/A,,Overcast,330,2013-09-28 11:15:00
6:35 AM,54.5,49.5,83,29.89,10.0,NW,6.9,-,N/A,,Overcast,320,2013-09-28 11:35:00
6:55 AM,54.5,49.3,83,29.90,10.0,NW,8.1,-,N/A,,Mostly Cloudy,320,2013-09-28 11:55:00
7:15 AM,54.0,49.1,84,29.91,10.0,NW,9.2,-,N/A,,Scattered Clouds,310,2013-09-28 12:15:00
7:35 AM,53.8,48.7,83,29.93,10.0,WNW,10.4,16.1,N/A,,Scattered Clouds,300,2013-09-28 12:35:00
7:55 AM,53.6,48.2,82,29.94,10.0,WNW,15.0,21.9,N/A,,Scattered Clouds,300,2013-09-28 12:55:00
8:15 AM,53.1,47.7,82,29.94,10.0,NW,12.7,21.9,N/A,,Clear,310,2013-09-28 13:15:00
8:35 AM,52.7,46.4,79,29.96,10.0,NW,12.7,19.6,N/A,,Clear,320,2013-09-28 13:35:00
8:55 AM,52.7,45.5,76,29.94,10.0,NNW,9.2,-,N/A,,Clear,340,2013-09-28 13:55:00
9:15 AM,52.9,45.5,76,29.97,10.0,NW,9.2,-,N/A,,Clear,310,2013-09-28 14:15:00
9:35 AM,53.6,46.0,76,29.97,10.0,WNW,9.2,-,N/A,,Clear,300,2013-09-28 14:35:00
9:55 AM,55.2,45.9,71,29.99,10.0,NW,12.7,17.3,N/A,,Clear,320,2013-09-28 14:55:00
10:15 AM,56.7,45.0,65,29.99,10.0,NW,15.0,20.7,N/A,,Clear,320,2013-09-28 15:15:00
10:35 AM,57.6,44.8,62,30.00,10.0,NW,11.5,-,N/A,,Clear,320,2013-09-28 15:35:00
10:55 AM,59.2,45.3,60,30.01,10.0,NW,12.7,20.7,N/A,,Clear,310,2013-09-28 15:55:00
11:15 AM,58.1,44.2,60,30.01,10.0,NW,12.7,18.4,N/A,,Clear,320,2013-09-28 16:15:00
11:35 AM,58.8,44.6,59,30.02,10.0,NW,10.4,-,N/A,,Clear,320,2013-09-28 16:35:00
11:55 AM,60.8,44.6,55,30.02,10.0,WNW,11.5,-,N/A,,Clear,290,2013-09-28 16:55:00
12:15 PM,63.0,45.0,52,30.03,10.0,NW,8.1,18.4,N/A,,Clear,310,2013-09-28 17:15:00
12:35 PM,63.9,44.4,49,30.03,10.0,WNW,10.4,17.3,N/A,,Clear,290,2013-09-28 17:35:00
12:55 PM,64.4,43.0,46,30.03,10.0,NW,13.8,17.3,N/A,,Clear,320,2013-09-28 17:55:00
1:15 PM,65.5,43.3,45,30.03,10.0,WNW,11.5,20.7,N/A,,Clear,300,2013-09-28 18:15:00
1:35 PM,66.0,41.9,41,30.02,10.0,NW,12.7,18.4,N/A,,Clear,310,2013-09-28 18:35:00
1:55 PM,66.9,42.6,41,30.02,10.0,NW,11.5,19.6,N/A,,Clear,320,2013-09-28 18:55:00
2:15 PM,67.3,40.6,38,30.01,10.0,NW,10.4,21.9,N/A,,Clear,310,2013-09-28 19:15:00
2:35 PM,67.5,40.3,37,30.01,10.0,NW,15.0,21.9,N/A,,Clear,310,2013-09-28 19:35:00
2:55 PM,68.0,40.8,37,30.02,10.0,NW,11.5,19.6,N/A,,Clear,310,2013-09-28 19:55:00
3:15 PM,68.4,40.3,36,30.02,10.0,NW,12.7,21.9,N/A,,Clear,320,2013-09-28 20:15:00
3:35 PM,68.2,39.7,35,30.02,10.0,WNW,9.2,-,N/A,,Clear,300,2013-09-28 20:35:00
3:55 PM,69.1,39.6,34,30.02,10.0,NW,10.4,16.1,N/A,,Clear,320,2013-09-28 20:55:00
4:15 PM,69.4,39.2,33,30.02,10.0,WNW,11.5,16.1,N/A,,Clear,300,2013-09-28 21:15:00
4:35 PM,69.8,37.0,30,30.02,10.0,NNW,10.4,17.3,N/A,,Clear,330,2013-09-28 21:35:00
4:55 PM,69.8,36.3,29,30.02,10.0,WNW,9.2,16.1,N/A,,Clear,300,2013-09-28 21:55:00
5:15 PM,69.8,33.6,26,30.03,10.0,NW,10.4,19.6,N/A,,Clear,310,2013-09-28 22:15:00
5:35 PM,69.8,33.6,26,30.03,10.0,NW,8.1,-,N/A,,Clear,320,2013-09-28 22:35:00
5:55 PM,69.1,34.3,28,30.03,10.0,NW,9.2,-,N/A,,Clear,310,2013-09-28 22:55:00
6:15 PM,68.7,37.0,31,30.04,10.0,NW,6.9,-,N/A,,Clear,310,2013-09-28 23:15:00
6:35 PM,67.5,37.6,33,30.04,10.0,WNW,4.6,-,N/A,,Clear,300,2013-09-28 23:35:00
6:55 PM,65.5,37.9,36,30.05,10.0,NW,4.6,-,N/A,,Clear,310,2013-09-28 23:55:00
7:15 PM,63.5,38.3,39,30.05,10.0,Calm,Calm,-,N/A,,Clear,0,2013-09-29 00:15:00
7:35 PM,59.7,42.6,53,30.05,10.0,Calm,Calm,-,N/A,,Clear,0,2013-09-29 00:35:00
7:55 PM,56.1,44.2,64,30.05,10.0,WSW,3.5,-,N/A,,Clear,240,2013-09-29 00:55:00
8:15 PM,55.0,43.7,66,30.06,10.0,Calm,Calm,-,N/A,,Clear,0,2013-09-29 01:15:00
8:35 PM,53.1,45.1,74,30.07,10.0,Calm,Calm,-,N/A,,Clear,0,2013-09-29 01:35:00
8:55 PM,53.1,44.1,71,30.07,10.0,Calm,Calm,-,N/A,,Clear,0,2013-09-29 01:55:00
9:15 PM,51.3,44.2,77,30.08,10.0,Calm,Calm,-,N/A,,Clear,0,2013-09-29 02:15:00
9:35 PM,50.5,45.3,82,30.08,10.0,Calm,Calm,-,N/A,,Clear,0,2013-09-29 02:35:00
9:55 PM,50.4,45.0,82,30.08,10.0,Calm,Calm,-,N/A,,Clear,0,2013-09-29 02:55:00
10:15 PM,49.6,44.1,81,30.09,10.0,Calm,Calm,-,N/A,,Clear,0,2013-09-29 03:15:00
10:35 PM,49.5,43.7,81,30.09,10.0,Calm,Calm,-,N/A,,Clear,0,2013-09-29 03:35:00
10:55 PM,48.6,43.2,82,30.09,10.0,Calm,Calm,-,N/A,,Clear,0,2013-09-29 03:55:00
11:15 PM,48.7,44.1,84,30.09,10.0,Calm,Calm,-,N/A,,Clear,0,2013-09-29 04:15:00
11:35 PM,47.7,44.1,87,30.10,10.0,Calm,Calm,-,N/A,,Clear,0,2013-09-29 04:35:00
11:55 PM,46.6,43.3,88,30.10,10.0,Calm,Calm,-,N/A,,Clear,0,2013-09-29 04:55:00